Cardiff-Wales, United Kingdom

8:52 PM BST on April 27, 2017 (GMT +0100)
Cardiff

Weather History for EGFF - December, 2012

Change the Weather History Date:

Monday, December 31, 2012

  Actual Average Record
Temperature  
Mean Temperature 48 °F -  
Max Temperature 51 °F 44 °F 53 °F (2006)
Min Temperature 44 °F 36 °F 24 °F (1996)
Degree Days  
Heating Degree Days 18    
Moisture  
Dew Point 47 °F    
Average Humidity 90    
Maximum Humidity 100    
Minimum Humidity 82    
Precipitation  
Precipitation 0.00 in 0.12 in - ()
Sea Level Pressure  
Sea Level Pressure 29.55 in    
Wind  
Wind Speed 14 mph ()    
Max Wind Speed 18 mph    
Max Gust Speed -    
Visibility 5.7 miles    
Events Rain    
Averages and records for this station are not official NWS values.
T = Trace of Precipitation, MM = Missing Value Source: Averaged Metar Reports

Daily Weather History Graph

Daily Weather History Graph

Search for Another Location

Airport or City:

Trip Planner

Search our weather history database for the weather conditions in past years. The results will help you decide how hot, cold, wet, or windy it might be!

Date:

Astronomy

Dec. 31, 2012 Rise Set
Actual Time 8:18 AM GMT 4:14 PM GMT
Civil Twilight 7:38 AM GMT 4:54 PM GMT
Nautical Twilight 6:55 AM GMT 5:37 PM GMT
Astronomical Twilight 6:15 AM GMT 6:18 PM GMT
Moon 7:56 PM GMT (12/31) 9:30 AM GMT (12/31)
Length of Visible Light 9h 15m
Length of Day
7h 56m
Waning Gibbous, 91% of the Moon is Illuminated
Dec 31
Waning Gibbous
Jan 5
Last Quarter
Jan 11
New
Jan 18
First Quarter
Jan 27
Full

Hourly Weather History & Observations

Time (GMT) Temp. Windchill Dew Point Humidity Pressure Visibility Wind Dir Wind Speed Gust Speed Precip Events Conditions
12:20 AM 50.0 °F - 46.4 °F 87% 29.77 in 6.2 mi SW 16.1 mph - N/A   Partly Cloudy
12:50 AM 50.0 °F - 46.4 °F 87% 29.77 in 6.2 mi SW 16.1 mph - N/A   Scattered Clouds
1:20 AM 51.8 °F - 46.4 °F 82% 29.77 in 6.2 mi SW 16.1 mph - N/A   Mostly Cloudy
1:50 AM 50.0 °F - 46.4 °F 87% 29.74 in 6.2 mi SW 16.1 mph - N/A   Mostly Cloudy
2:20 AM 51.8 °F - 46.4 °F 82% 29.74 in 6.2 mi WSW 17.3 mph - N/A   Mostly Cloudy
2:50 AM 50.0 °F - 46.4 °F 87% 29.74 in 6.2 mi WSW 18.4 mph - N/A   Mostly Cloudy
3:20 AM 50.0 °F - 46.4 °F 87% 29.71 in 6.2 mi SW 15.0 mph - N/A   Mostly Cloudy
3:50 AM 51.8 °F - 46.4 °F 82% 29.71 in 6.2 mi SW 16.1 mph - N/A   Drizzle
4:20 AM 50.0 °F - 46.4 °F 87% 29.68 in 6.2 mi SW 15.0 mph - N/A   Mostly Cloudy
4:50 AM 51.8 °F - 46.4 °F 82% 29.65 in 6.2 mi SW 17.3 mph - N/A   Mostly Cloudy
5:20 AM 51.8 °F - 46.4 °F 82% 29.65 in 6.2 mi SW 16.1 mph - N/A   Mostly Cloudy
5:50 AM 51.8 °F - 46.4 °F 82% 29.62 in 6.2 mi SW 16.1 mph - N/A   Overcast
6:20 AM 51.8 °F - 46.4 °F 82% 29.62 in 6.2 mi SW 17.3 mph - N/A   Mostly Cloudy
6:50 AM 51.8 °F - 46.4 °F 82% 29.59 in 6.2 mi SW 13.8 mph - N/A   Mostly Cloudy
7:20 AM 51.8 °F - 46.4 °F 82% 29.56 in 6.2 mi SW 15.0 mph - N/A   Mostly Cloudy
7:50 AM 51.8 °F - 48.2 °F 88% 29.56 in 6.2 mi SW 17.3 mph - N/A   Mostly Cloudy
8:20 AM 51.8 °F - 48.2 °F 88% 29.56 in 6.2 mi SW 17.3 mph - N/A Rain Light Rain
8:50 AM 50.0 °F - 48.2 °F 94% 29.56 in 6.2 mi SW 13.8 mph - N/A   Mostly Cloudy
9:20 AM 50.0 °F - 48.2 °F 94% 29.53 in 6.2 mi SW 11.5 mph - N/A Rain Rain
9:50 AM 51.8 °F - 48.2 °F 88% 29.53 in 4.3 mi SSW 13.8 mph - N/A Rain Heavy Rain
10:20 AM 51.8 °F - 48.2 °F 88% 29.53 in 5.0 mi SW 15.0 mph - N/A Rain Rain
10:50 AM 51.8 °F - 48.2 °F 88% 29.50 in 5.0 mi SW 15.0 mph - N/A Rain Rain
11:20 AM 50.0 °F - 48.2 °F 94% 29.50 in 5.6 mi SW 11.5 mph - N/A Rain Light Rain
11:50 AM 50.0 °F - 48.2 °F 94% 29.47 in 6.2 mi SW 11.5 mph - N/A Rain Light Rain
12:20 PM 50.0 °F - 48.2 °F 94% 29.47 in 6.2 mi WSW 11.5 mph - N/A Rain Light Rain
12:50 PM 50.0 °F - 48.2 °F 94% 29.47 in 6.2 mi WSW 11.5 mph - N/A Rain Rain
1:20 PM 50.0 °F - 48.2 °F 94% 29.44 in 6.2 mi WSW 11.5 mph - N/A Rain Light Rain
1:50 PM 50.0 °F - 48.2 °F 94% 29.44 in 6.2 mi WSW 11.5 mph - N/A Rain Light Rain
2:20 PM 50.0 °F - 46.4 °F 87% 29.44 in 6.2 mi WSW 12.7 mph - N/A Rain Light Rain
2:50 PM 50.0 °F - 48.2 °F 94% 29.44 in 6.2 mi WSW 12.7 mph - N/A Rain Light Rain
3:20 PM 50.0 °F - 48.2 °F 94% 29.44 in 6.2 mi WSW 12.7 mph - N/A Rain Light Rain
3:50 PM 50.0 °F - 48.2 °F 94% 29.44 in 5.0 mi West 16.1 mph - N/A   Scattered Clouds
4:20 PM 48.2 °F - 48.2 °F 100% 29.44 in 5.0 mi West 16.1 mph - N/A   Scattered Clouds
4:50 PM 50.0 °F - 48.2 °F 94% 29.47 in 4.3 mi West 16.1 mph - N/A   Mostly Cloudy
5:20 PM 48.2 °F - 46.4 °F 93% 29.47 in 4.3 mi West 13.8 mph - N/A   Mostly Cloudy
5:50 PM 50.0 °F - 48.2 °F 94% 29.47 in 4.3 mi WSW 13.8 mph - N/A Rain Light Rain Showers
6:20 PM 48.2 °F - 48.2 °F 100% 29.47 in 2.5 mi West 15.0 mph - N/A Rain Rain Showers
6:50 PM 48.2 °F - 46.4 °F 93% 29.47 in 3.7 mi West 13.8 mph - N/A   Scattered Clouds
7:20 PM 48.2 °F - 46.4 °F 93% 29.47 in 3.7 mi West 16.1 mph - N/A   Scattered Clouds
7:50 PM 48.2 °F - 46.4 °F 93% 29.47 in 5.0 mi West 13.8 mph - N/A   Scattered Clouds
8:20 PM 48.2 °F - 46.4 °F 93% 29.50 in 6.2 mi West 12.7 mph - N/A   Scattered Clouds
8:50 PM 48.2 °F - 46.4 °F 93% 29.50 in 6.2 mi West 11.5 mph - N/A   Mostly Cloudy
9:20 PM 48.2 °F - 46.4 °F 93% 29.50 in 6.2 mi WNW 12.7 mph - N/A   Scattered Clouds
9:50 PM 46.4 °F 40.7 °F 44.6 °F 93% 29.50 in 6.2 mi WNW 12.7 mph - N/A   Mostly Cloudy
10:20 PM 46.4 °F 40.4 °F 44.6 °F 93% 29.53 in 6.2 mi WNW 13.8 mph - N/A   Mostly Cloudy
10:50 PM 46.4 °F 40.4 °F 42.8 °F 87% 29.53 in 6.2 mi WNW 13.8 mph - N/A   Overcast
11:20 PM 44.6 °F 37.8 °F 41.0 °F 87% 29.56 in 6.2 mi WNW 15.0 mph - N/A   Mostly Cloudy
11:50 PM 44.6 °F 37.8 °F 41.0 °F 87% 29.56 in 6.2 mi WNW 15.0 mph - N/A   Unknown